| time (UTC) | temp F | wind direction | speed knots | gust knots | rain 1hr in | rain 24hr in | rain mn in | humidity % | barometer mb |
| 20260503013028 | 65 | 276 | 0.0 | 2.6 | 0.00 | 0.00 | 0.00 | 32 | 1014.6 |
| 20260503011533 | 66 | 276 | 1.7 | 5.2 | 0.00 | 0.00 | 0.00 | 31 | 1014.7 |
| 20260503010033 | 65 | 274 | 2.6 | 5.2 | 0.00 | 0.00 | 0.00 | 32 | 1014.8 |
| 20260503004601 | 65 | 249 | 3.5 | 7.0 | 0.00 | 0.00 | 0.00 | 32 | 1014.8 |
| 20260503003030 | 66 | 250 | 4.3 | 8.7 | 0.00 | 0.00 | 0.00 | 31 | 1015.1 |
| 20260503001530 | 66 | 236 | 5.2 | 9.6 | 0.00 | 0.00 | 0.00 | 30 | 1015.3 |
| 20260503000032 | 67 | 265 | 3.5 | 7.0 | 0.00 | 0.00 | 0.00 | 30 | 1015.3 |
| 20260502234536 | 68 | 263 | 4.3 | 7.8 | 0.00 | 0.00 | 0.00 | 30 | 1015.4 |
| 20260502233028 | 68 | 212 | 7.0 | 11.3 | 0.00 | 0.00 | 0.00 | 29 | 1015.6 |
| 20260502231528 | 69 | 341 | 2.6 | 7.8 | 0.00 | 0.00 | 0.00 | 30 | 1015.8 |
| 20260502230030 | 69 | 52 | 0.9 | 9.6 | 0.00 | 0.00 | 0.00 | 30 | 1015.9 |
| 20260502224530 | 69 | 296 | 4.3 | 13.9 | 0.00 | 0.00 | 0.00 | 32 | 1016.0 |
| 20260502223031 | 68 | 51 | 3.5 | 7.8 | 0.00 | 0.00 | 0.00 | 32 | 1016.1 |
| 20260502221533 | 66 | 327 | 3.5 | 5.2 | 0.00 | 0.00 | 0.00 | 33 | 1016.4 |
| 20260502220031 | 66 | 61 | 0.9 | 7.8 | 0.00 | 0.00 | 0.00 | 34 | 1016.6 |
| 20260502214530 | 67 | 355 | 5.2 | 11.3 | 0.00 | 0.00 | 0.00 | 32 | 1016.8 |
| 20260502213035 | 66 | 275 | 7.8 | 10.4 | 0.00 | 0.00 | 0.00 | 33 | 1017.0 |
| 20260502211530 | 66 | 5 | 6.1 | 10.4 | 0.00 | 0.00 | 0.00 | 34 | 1017.2 |
| 20260502210028 | 65 | 192 | 0.9 | 5.2 | 0.00 | 0.00 | 0.00 | 34 | 1017.4 |
| 20260502204532 | 66 | 270 | 5.2 | 10.4 | 0.00 | 0.00 | 0.00 | 35 | 1017.6 |
| 20260502203030 | 64 | 360 | 4.3 | 12.2 | 0.00 | 0.00 | 0.00 | 36 | 1017.7 |
| 20260502201538 | 64 | 346 | 8.7 | 14.8 | 0.00 | 0.00 | 0.00 | 36 | 1017.9 |
| 20260502200029 | 64 | 40 | 4.3 | 13.9 | 0.00 | 0.00 | 0.00 | 37 | 1018.0 |
| 20260502194537 | 64 | 355 | 13.0 | 18.2 | 0.00 | 0.00 | 0.00 | 37 | 1018.0 |
| 20260502193031 | 64 | 31 | 3.5 | 11.3 | 0.00 | 0.00 | 0.00 | 35 | 1018.2 |
| 20260502191538 | 65 | 32 | 6.1 | 13.9 | 0.00 | 0.00 | 0.00 | 35 | 1018.3 |
| 20260502190029 | 65 | 5 | 4.3 | 10.4 | 0.00 | 0.00 | 0.00 | 35 | 1018.4 |
| 20260502184536 | 65 | 50 | 3.5 | 13.9 | 0.00 | 0.00 | 0.00 | 33 | 1018.4 |
| 20260502183030 | 65 | 142 | 1.7 | 13.9 | 0.00 | 0.00 | 0.00 | 34 | 1018.6 |
| 20260502181535 | 63 | 15 | 8.7 | 16.5 | 0.00 | 0.00 | 0.00 | 37 | 1018.7 |
| 20260502163045 | 63 | 37 | 7.0 | 16.5 | 0.00 | 0.00 | 0.00 | 37 | 1019.3 |
| 20260502161529 | 62 | 5 | 9.6 | 14.8 | 0.00 | 0.00 | 0.00 | 37 | 1019.5 |
| 20260502151528 | 59 | 58 | 7.8 | 13.0 | 0.00 | 0.00 | 0.00 | 40 | 1019.4 |
| 20260502123030 | 46 | 20 | 7.8 | 10.4 | 0.00 | 0.00 | 0.00 | 54 | 1017.7 |
| 20260502121528 | 46 | 26 | 7.8 | 13.0 | 0.00 | 0.00 | 0.00 | 54 | 1017.6 |
| 20260502114531 | 47 | 355 | 7.0 | 9.6 | 0.00 | 0.00 | 0.00 | 49 | 1017.5 |
| 20260502113028 | 47 | 329 | 6.1 | 7.8 | 0.00 | 0.00 | 0.00 | 46 | 1017.1 |
| 20260502111529 | 49 | 344 | 4.3 | 9.6 | 0.00 | 0.00 | 0.00 | 45 | 1016.8 |
| 20260502110032 | 49 | 5 | 3.5 | 9.6 | 0.00 | 0.00 | 0.00 | 44 | 1016.5 |
| 20260502104528 | 48 | 326 | 3.5 | 7.0 | 0.00 | 0.00 | 0.00 | 46 | 1016.3 |
| 20260502103028 | 46 | 15 | 4.3 | 9.6 | 0.00 | 0.00 | 0.00 | 46 | 1016.1 |
| 20260502101530 | 46 | 284 | 6.1 | 7.0 | 0.00 | 0.00 | 0.00 | 47 | 1015.9 |
| 20260502091530 | 51 | 278 | 8.7 | 12.2 | 0.00 | 0.00 | 0.00 | 40 | 1015.3 |
| 20260502071531 | 50 | 304 | 3.5 | 7.8 | 0.00 | 0.00 | 0.00 | 36 | 1014.9 |
| 20260502070042 | 49 | 232 | 6.1 | 9.6 | 0.00 | 0.00 | 0.00 | 40 | 1014.8 |
| 20260502064538 | 48 | 234 | 5.2 | 8.7 | 0.00 | 0.00 | 0.00 | 41 | 1014.7 |
| 20260502063030 | 51 | 240 | 6.1 | 7.8 | 0.00 | 0.00 | 0.00 | 31 | 1014.7 |
| 20260502061531 | 52 | 282 | 6.1 | 8.7 | 0.00 | 0.00 | 0.00 | 34 | 1014.7 |
| 20260502060031 | 49 | 276 | 4.3 | 7.0 | 0.00 | 0.00 | 0.00 | 34 | 1014.6 |
| 20260502054530 | 52 | 304 | 2.6 | 7.8 | 0.00 | 0.00 | 0.00 | 30 | 1014.5 |
| 20260502053029 | 55 | 294 | 6.1 | 11.3 | 0.00 | 0.00 | 0.00 | 29 | 1014.3 |
| 20260502051530 | 57 | 273 | 7.8 | 13.0 | 0.00 | 0.00 | 0.00 | 27 | 1014.4 |
| 20260502050035 | 59 | 269 | 8.7 | 12.2 | 0.00 | 0.00 | 0.00 | 25 | 1014.2 |
| 20260502044528 | 59 | 275 | 10.4 | 13.9 | 0.00 | 0.00 | 0.00 | 24 | 1014.3 |
| 20260502043031 | 60 | 278 | 11.3 | 13.9 | 0.00 | 0.00 | 0.00 | 23 | 1014.1 |
| 20260502041534 | 61 | 269 | 10.4 | 14.8 | 0.00 | 0.00 | 0.00 | 22 | 1014.1 |
| 20260502040029 | 61 | 276 | 10.4 | 13.0 | 0.00 | 0.00 | 0.00 | 21 | 1014.0 |
| 20260502034537 | 61 | 261 | 7.0 | 9.6 | 0.00 | 0.00 | 0.00 | 21 | 1014.0 |
| 20260502033027 | 63 | 282 | 7.8 | 9.6 | 0.00 | 0.00 | 0.00 | 20 | 1013.8 |
| 20260502031528 | 63 | 275 | 7.8 | 11.3 | 0.00 | 0.00 | 0.00 | 20 | 1013.7 |
| 20260502030032 | 65 | 286 | 7.8 | 10.4 | 0.00 | 0.00 | 0.00 | 20 | 1013.6 |
| 20260502024529 | 67 | 273 | 7.8 | 12.2 | 0.00 | 0.00 | 0.00 | 19 | 1013.4 |
| 20260502023030 | 65 | 242 | 7.8 | 8.7 | 0.00 | 0.00 | 0.00 | 21 | 1013.1 |
| 20260502021530 | 66 | 240 | 6.1 | 7.8 | 0.00 | 0.00 | 0.00 | 21 | 1013.2 |
| 20260502020030 | 67 | 235 | 5.2 | 7.0 | 0.00 | 0.00 | 0.00 | 20 | 1013.1 |
| 20260502014547 | 70 | 239 | 5.2 | 7.8 | 0.00 | 0.00 | 0.00 | 17 | 1013.1 |